FALCON 9 DEB (50855 NORAD) Tracking and Keplerian Element Data
This shows tracking and keplerian element data for the satellite.
Feedback or suggestion? Click here.
Element | Value |
Catalog | 50855 |
Name | FALCON 9 DEB |
Epoch Orbit | 234 |
Epoch Day | 21.32207633 |
Epoch Year | 2022 |
RAAN | 125.2127 |
Inclination | 53.2096 |
Eccentricity | 0.0015208 |
Argument of Perigee | 244.5987 |
Mean Anonmoly | 115.349 |
Mean Motion | 16.43751165 |
Decay Rate | 0.08146901 |
L1 | 1 50855U 22001BE 22021.32207633 .08146901 12349-4 23886-3 0 9993 |
L2 | 2 50855 53.2096 125.2127 0015208 244.5987 115.3490 16.43751165 2346 |
Live tracking and technical data element details for FALCON 9 DEB (NORAD 50855). FALCON 9 DEB can be tracked NOW for your location showing map with azimuth and elevation plus other details from your city location.
Track the satellite on the map from your city or location and see movement details for azimuth, elevation, latitude, longitude, range, height, and movement on the map or in text.
IsCatalogInMostPopularTable: catalog: 50855, numindb: 20
Update: records affected: 1
GetName: 50855 FALCON 9 DEB
Hit Count: updated at: Sun, 22 May 2022 03:47:32 GMT